TimeCST,TemperatureF,Dew PointF,Humidity,Sea Level PressureIn,VisibilityMPH,Wind Direction,Wind SpeedMPH,Gust SpeedMPH,PrecipitationIn,Events,Conditions,WindDirDegrees,DateUTC
12:53 AM,19.9,14.0,78,30.20,10.0,ESE,10.4,-,N/A,,Clear,110,2013-02-08 06:53:00
1:53 AM,19.9,16.0,85,30.19,10.0,ESE,11.5,-,N/A,,Clear,120,2013-02-08 07:53:00
2:53 AM,21.0,18.0,88,30.18,10.0,ESE,11.5,-,N/A,,Clear,110,2013-02-08 08:53:00
3:53 AM,19.9,17.1,89,30.16,10.0,ESE,8.1,-,N/A,,Clear,110,2013-02-08 09:53:00
4:53 AM,28.0,21.9,78,30.14,10.0,SSE,6.9,-,N/A,,Clear,150,2013-02-08 10:53:00
5:53 AM,21.2,17.6,86,30.09,10.0,ESE,12.7,-,N/A,,Clear,120,2013-02-08 11:53:00
6:53 AM,19.9,17.1,89,30.17,10.0,ESE,10.4,-,N/A,,Clear,110,2013-02-08 12:53:00
7:53 AM,19.9,17.1,89,30.17,8.0,ESE,10.4,-,N/A,,Clear,110,2013-02-08 13:53:00
8:53 AM,23.0,19.9,88,30.19,8.0,East,10.4,-,N/A,,Clear,100,2013-02-08 14:53:00
9:53 AM,35.1,25.0,67,30.17,10.0,SSE,5.8,-,N/A,,Clear,150,2013-02-08 15:53:00
10:53 AM,42.1,25.0,51,30.12,10.0,South,16.1,24.2,N/A,,Clear,170,2013-02-08 16:53:00
11:53 AM,48.0,25.0,41,30.09,10.0,South,18.4,-,N/A,,Clear,180,2013-02-08 17:53:00
12:53 PM,53.1,25.0,34,30.02,10.0,SSE,18.4,-,N/A,,Clear,160,2013-02-08 18:53:00
1:53 PM,54.0,24.1,31,29.99,10.0,South,19.6,33.4,N/A,,Clear,170,2013-02-08 19:53:00
2:53 PM,54.0,24.1,31,29.94,10.0,South,25.3,38.0,N/A,,Clear,180,2013-02-08 20:53:00
3:53 PM,52.0,24.1,34,29.93,10.0,South,20.7,34.5,N/A,,Partly Cloudy,170,2013-02-08 21:53:00
4:53 PM,52.0,23.0,32,29.91,10.0,South,24.2,32.2,N/A,,Clear,170,2013-02-08 22:53:00
5:53 PM,48.9,21.9,35,29.91,10.0,SSE,19.6,26.5,N/A,,Clear,160,2013-02-08 23:53:00
6:53 PM,41.0,26.1,55,29.92,10.0,SE,12.7,-,N/A,,Clear,130,2013-02-09 00:53:00
7:53 PM,34.0,26.1,73,29.95,10.0,ESE,13.8,-,N/A,,Clear,110,2013-02-09 01:53:00
8:53 PM,42.1,23.0,47,29.91,10.0,SSE,17.3,-,N/A,,Clear,160,2013-02-09 02:53:00
9:53 PM,39.9,21.9,49,29.88,10.0,SE,12.7,21.9,N/A,,Clear,140,2013-02-09 03:53:00
10:53 PM,36.0,24.1,62,29.87,10.0,ESE,13.8,-,N/A,,Clear,120,2013-02-09 04:53:00
11:53 PM,33.1,24.1,70,29.86,10.0,ESE,12.7,-,N/A,,Clear,120,2013-02-09 05:53:00